Hourly Weather Gogol

Today, 17 June, Thursday

Time Temperature Precipitation Wind Pressure Humidity
00:00 +14°C° 0 mm 2 mps 751 mmHg 83%
01:00 +14°C° 0 mm 2 mps 751 mmHg 82%
02:00 +13°C° 0 mm 2 mps 752 mmHg 81%
03:00 +13°C° 0 mm 2 mps 752 mmHg 82%
04:00 +14°C° 0 mm 2 mps 752 mmHg 83%
05:00 +14°C° 0 mm 2 mps 753 mmHg 84%
06:00 +16°C° 0 mm 2 mps 753 mmHg 75%
07:00 +18°C° 0 mm 3 mps 753 mmHg 67%
08:00 +20°C° 0 mm 3 mps 753 mmHg 59%
09:00 +22°C° 0 mm 3 mps 754 mmHg 55%
10:00 +24°C° 0 mm 3 mps 754 mmHg 51%
11:00 +25°C° 0 mm 3 mps 754 mmHg 46%
12:00 +25°C° 0 mm 3 mps 754 mmHg 45%
13:00 +26°C° 0 mm 3 mps 754 mmHg 44%
14:00 +26°C° 0 mm 3 mps 754 mmHg 43%
15:00 +26°C° 0 mm 3 mps 754 mmHg 46%
16:00 +25°C° 0 mm 3 mps 754 mmHg 49%
17:00 +25°C° 0 mm 3 mps 754 mmHg 53%
18:00 +22°C° 0 mm 3 mps 754 mmHg 61%
19:00 +20°C° 0 mm 3 mps 754 mmHg 69%
20:00 +19°C° 0 mm 2 mps 754 mmHg 78%
21:00 +18°C° 0 mm 2 mps 755 mmHg 80%
22:00 +17°C° 0 mm 2 mps 755 mmHg 82%
23:00 +16°C° 0 mm 2 mps 755 mmHg 84%

Tomorrow, 18 June, Friday

Time Temperature Precipitation Wind Pressure Humidity
00:00 +15°C° 0 mm 2 mps 755 mmHg 86%
01:00 +15°C° 0 mm 2 mps 755 mmHg 87%
02:00 +14°C° 0 mm 2 mps 755 mmHg 89%
03:00 +14°C° 0 mm 2 mps 755 mmHg 88%
04:00 +15°C° 0 mm 2 mps 755 mmHg 88%
05:00 +15°C° 0 mm 2 mps 756 mmHg 87%
06:00 +17°C° 0 mm 2 mps 756 mmHg 80%
07:00 +19°C° 0 mm 3 mps 756 mmHg 72%
08:00 +21°C° 0 mm 3 mps 756 mmHg 65%
09:00 +22°C° 0 mm 3 mps 756 mmHg 60%
10:00 +24°C° 0 mm 3 mps 756 mmHg 55%
11:00 +25°C° 0 mm 4 mps 755 mmHg 49%
12:00 +26°C° 0 mm 4 mps 755 mmHg 48%
13:00 +26°C° 0 mm 4 mps 755 mmHg 46%
14:00 +27°C° 0 mm 4 mps 755 mmHg 44%
15:00 +27°C° 0 mm 3 mps 755 mmHg 47%
16:00 +26°C° 0 mm 3 mps 755 mmHg 50%
17:00 +26°C° 0 mm 3 mps 755 mmHg 53%
18:00 +24°C° 0 mm 3 mps 754 mmHg 62%
19:00 +21°C° 0 mm 3 mps 754 mmHg 71%
20:00 +20°C° 0 mm 2 mps 754 mmHg 80%
21:00 +19°C° 0 mm 2 mps 755 mmHg 83%
22:00 +17°C° 0 mm 2 mps 755 mmHg 86%
23:00 +16°C° 0 mm 2 mps 755 mmHg 90%

Day after tomorrow, 19 June, Saturday

Time Temperature Precipitation Wind Pressure Humidity
00:00 +16°C° 0 mm 2 mps 755 mmHg 91%
01:00 +16°C° 0 mm 2 mps 755 mmHg 92%
02:00 +15°C° 0 mm 2 mps 755 mmHg 94%
03:00 +15°C° 0 mm 2 mps 755 mmHg 94%
04:00 +16°C° 0 mm 2 mps 755 mmHg 93%
05:00 +16°C° 0 mm 2 mps 755 mmHg 93%
06:00 +18°C° 0 mm 2 mps 755 mmHg 86%
07:00 +20°C° 0 mm 3 mps 755 mmHg 78%
08:00 +21°C° 0 mm 3 mps 755 mmHg 71%
09:00 +24°C° 0 mm 3 mps 755 mmHg 66%
10:00 +25°C° 0 mm 3 mps 755 mmHg 61%
11:00 +26°C° 0 mm 3 mps 755 mmHg 55%
12:00 +27°C° 0 mm 4 mps 754 mmHg 54%
13:00 +27°C° 0 mm 4 mps 754 mmHg 52%
14:00 +28°C° 0 mm 4 mps 754 mmHg 50%
15:00 +27°C° 0 mm 3 mps 754 mmHg 52%
16:00 +27°C° 0 mm 3 mps 753 mmHg 55%
17:00 +27°C° 0 mm 3 mps 753 mmHg 57%
18:00 +25°C° 0 mm 3 mps 753 mmHg 65%
19:00 +24°C° 0 mm 3 mps 753 mmHg 74%
20:00 +21°C° 0 mm 2 mps 753 mmHg 83%
21:00 +20°C° 0 mm 2 mps 753 mmHg 86%
22:00 +19°C° 0 mm 2 mps 753 mmHg 90%
23:00 +18°C° 0 mm 2 mps 753 mmHg 93%

20 June, Sunday

Time Temperature Precipitation Wind Pressure Humidity
00:00 +18°C° 0 mm 2 mps 753 mmHg 94%
01:00 +17°C° 0 mm 2 mps 753 mmHg 94%
02:00 +17°C° 0 mm 2 mps 753 mmHg 95%
03:00 +17°C° 0 mm 2 mps 753 mmHg 94%
04:00 +17°C° 0 mm 2 mps 753 mmHg 94%
05:00 +17°C° 0 mm 2 mps 753 mmHg 94%
06:00 +19°C° 0 mm 2 mps 753 mmHg 87%
07:00 +21°C° 0 mm 3 mps 753 mmHg 80%
08:00 +24°C° 0 mm 3 mps 753 mmHg 73%
09:00 +25°C° 0 mm 3 mps 753 mmHg 68%
10:00 +26°C° 0 mm 3 mps 753 mmHg 64%
11:00 +27°C° 0 mm 3 mps 753 mmHg 59%
12:00 +28°C° 0 mm 3 mps 752 mmHg 57%
13:00 +28°C° 0 mm 3 mps 752 mmHg 55%
14:00 +29°C° 0 mm 3 mps 752 mmHg 53%
15:00 +29°C° 0 mm 3 mps 751 mmHg 55%
16:00 +29°C° 0 mm 3 mps 751 mmHg 57%
17:00 +28°C° 0 mm 3 mps 751 mmHg 59%
18:00 +27°C° 0 mm 3 mps 751 mmHg 67%
19:00 +25°C° 0 mm 3 mps 751 mmHg 75%
20:00 +23°C° 0 mm 2 mps 751 mmHg 82%
21:00 +21°C° 0 mm 2 mps 751 mmHg 85%
22:00 +20°C° 0 mm 2 mps 751 mmHg 88%
23:00 +19°C° 0 mm 2 mps 751 mmHg 91%

21 June, Monday

Time Temperature Precipitation Wind Pressure Humidity
00:00 +19°C° 0 mm 2 mps 751 mmHg 92%
01:00 +18°C° 0 mm 2 mps 751 mmHg 93%
02:00 +18°C° 0 mm 2 mps 751 mmHg 94%
03:00 +18°C° 0 mm 2 mps 751 mmHg 93%
04:00 +18°C° 0 mm 2 mps 751 mmHg 93%
05:00 +18°C° 0 mm 2 mps 751 mmHg 92%
06:00 +20°C° 0 mm 3 mps 751 mmHg 84%
07:00 +22°C° 0 mm 3 mps 751 mmHg 76%
08:00 +23°C° 0 mm 4 mps 751 mmHg 68%
09:00 +26°C° 0.1 mm 4 mps 751 mmHg 64%
10:00 +27°C° 0.1 mm 4 mps 750 mmHg 59%
11:00 +28°C° 0.1 mm 4 mps 750 mmHg 54%
12:00 +28°C° 0 mm 4 mps 750 mmHg 53%
13:00 +29°C° 0 mm 4 mps 750 mmHg 52%
14:00 +29°C° 0 mm 5 mps 749 mmHg 52%
15:00 +29°C° 0 mm 5 mps 749 mmHg 55%
16:00 +29°C° 0 mm 4 mps 749 mmHg 59%
17:00 +28°C° 0 mm 4 mps 749 mmHg 62%
18:00 +27°C° 0 mm 4 mps 749 mmHg 70%
19:00 +26°C° 0 mm 3 mps 749 mmHg 77%
20:00 +24°C° 0 mm 3 mps 749 mmHg 85%
21:00 +22°C° 0 mm 3 mps 749 mmHg 88%
22:00 +21°C° 0 mm 3 mps 749 mmHg 92%
23:00 +21°C° 0 mm 3 mps 749 mmHg 95%

22 June, Tuesday

Time Temperature Precipitation Wind Pressure Humidity
00:00 +20°C° 0 mm 3 mps 749 mmHg 96%
01:00 +20°C° 0 mm 3 mps 749 mmHg 96%
02:00 +20°C° 0 mm 3 mps 749 mmHg 96%
03:00 +20°C° 0 mm 3 mps 749 mmHg 95%
04:00 +20°C° 0 mm 3 mps 749 mmHg 94%
05:00 +20°C° 0 mm 3 mps 749 mmHg 93%
06:00 +22°C° 0 mm 4 mps 749 mmHg 85%
07:00 +25°C° 0 mm 4 mps 749 mmHg 76%
08:00 +26°C° 0 mm 5 mps 749 mmHg 68%
09:00 +28°C° 0 mm 5 mps 749 mmHg 62%
10:00 +29°C° 0 mm 5 mps 749 mmHg 56%
11:00 +30°C° 0 mm 5 mps 749 mmHg 50%
12:00 +32°C° 0 mm 5 mps 749 mmHg 50%
13:00 +32°C° 0 mm 5 mps 749 mmHg 50%
14:00 +32°C° 0 mm 5 mps 749 mmHg 50%
15:00 +32°C° 0 mm 5 mps 749 mmHg 52%
16:00 +32°C° 0 mm 5 mps 749 mmHg 55%
17:00 +30°C° 0 mm 5 mps 749 mmHg 57%
18:00 +29°C° 0 mm 5 mps 749 mmHg 64%
19:00 +27°C° 0 mm 4 mps 749 mmHg 70%
20:00 +26°C° 0 mm 4 mps 749 mmHg 77%
21:00 +25°C° 0 mm 3 mps 749 mmHg 81%
22:00 +24°C° 0 mm 3 mps 749 mmHg 85%
23:00 +22°C° 0 mm 3 mps 749 mmHg 89%
Show more

We Need Your Consent

Meteoprog and our Service Providers may store and access personal data such as cookies, device identifiers or other similar technologies on your device and process such data to personalise content and ads, as well as provide social media features and to analyse the traffic.

  • Store and/or access information on your device

    Cookies, device identifiers or other information can be stored or accessed on your device for the purposes indicated above.

  • Personalised ads and content, ad and content measurement, audience insights, and products development

    Ads and content can be personalised based on a profile. More data can be added to better personalise ads and content. Ad and content performance can be measured. Insights about the audience who saw the ads and content can be derived. Such data can be used to develop or improve user’s experience, systems and software.

By clicking ‘I Agree’ you will allow the use of indicated cookies, device identifiers, web beacons or other similar technologies. Your settings can be changed in the browser on your device.

For certain purposes, legitimate interests may be relied on, rather than consent. You can read more about this in our Privacy and Cookie Policy.